Location: Henderson
(36.0400°N, 114.9810°W)
Time: 12:07:48
(UTC-07:00)

Daily predictions for brighter satellites

Satellite Brightness Start Highest point End
(mag) Time Altitude Azimuth Time Altitude Azimuth Time Altitude Azimuth
Cosmos 292 Rocket 4.2 20:05:37 10° S 20:10:11 43° ESE 20:14:44 10° NNE
Cosmos 1544 Rocket 4.4 20:07:10 10° NNE 20:11:03 31° ENE 20:14:52 10° SE
Envisat 3.7 20:08:05 10° SE 20:12:44 38° ENE 20:17:24 10° N
Cosmos 724 4.4 20:10:57 10° NNW 20:16:57 68° ENE 20:22:45 10° SE
Iridium 4 Rocket 3.6 20:14:22 10° N 20:19:17 59° E 20:24:40 10° SSE
Cosmos 1943 4.3 20:15:32 10° SW 20:20:59 50° WNW 20:26:27 10° N
RESURS DK-1 2.4 20:22:52 10° SSW 20:26:59 85° WNW 20:31:08 10° NNE
Cosmos 1538 Rocket 4.0 20:27:31 10° SSW 20:32:40 86° ESE 20:37:51 10° NNE
Okean 1 3.2 20:28:56 10° S 20:32:53 78° E 20:36:51 10° N
Cosmos 1455 Rocket 3.3 20:32:20 10° N 20:36:36 52° E 20:40:49 10° SSE
Abrixas 3.6 20:34:53 10° WNW 20:37:22 31° SW 20:39:28 13° SSE
Cosmos 405 Rocket 3.7 20:34:20 10° SSE 20:37:27 27° E 20:40:41 10° NNE
Cosmos 1975 3.0 20:33:47 10° N 20:37:47 56° E 20:41:47 10° SSE
Tiangong 2 2.1 20:35:42 10° SSW 20:38:26 27° SE 20:40:57 11° E
DEBRIS 3.0 20:36:04 10° SW 20:38:50 83° SE 20:46:29 10° NE
Spot 1 4.3 20:34:39 10° SSE 20:39:16 63° ENE 20:43:37 10° N
Aureole 3 Rocket 4.4 20:33:49 10° SSE 20:40:34 40° E 20:45:33 10° NNE
Cosmos 923 Rocket 4.4 20:36:17 10° S 20:41:18 43° ESE 20:46:19 10° NNE
YAOGAN 6 3.5 20:39:52 15° SE 20:42:06 29° ENE 20:45:11 10° NNE
NOSS 2-2 (E) 3.3 20:39:18 10° SSW 20:43:14 69° ESE 20:47:36 10° NE
Helios 1B rocket 2.4 20:39:07 10° NNE 20:43:15 84° ESE 20:47:23 10° SSW
Cosmos 2369 Rocket 3.0 20:38:03 10° NNW 20:43:33 52° WSW 20:49:01 10° S
SAR-Lupe-4 3.6 20:40:32 12° SSE 20:43:47 60° ENE 20:47:20 10° N
ISS -2.0 20:41:46 10° S 20:43:04 15° SSE 20:43:04 15° SSE
Cosmos 1656 Rocket 4.4 20:42:54 10° N 20:47:55 36° ENE 20:51:37 17° ESE
Meteor 1-29 2.8 20:45:08 10° NNE 20:48:31 78° ESE 20:51:52 10° S
Cosmos 1939 Rocket 2.7 20:45:14 12° SSE 20:48:48 69° ENE 20:52:39 10° N
Meteor 1-13 Rocket 4.4 20:47:05 10° S 20:52:53 58° E 20:58:40 10° NNE
Cosmos 1437 2.6 20:49:48 10° S 20:52:59 72° E 20:56:12 10° NNE
Cosmos 1500 3.4 20:51:55 10° NNW 20:55:40 69° W 20:59:23 10° S
COSMOS 2455 2.8 20:50:27 10° NNW 20:56:29 80° ENE 21:01:11 17° SSE
Cosmos 1709 Rocket 4.4 20:52:03 10° NNW 20:58:15 67° W 21:04:22 10° S
OAO 2 Rocket 3.3 20:55:16 10° WSW 21:00:08 62° SSE 21:04:26 14° E
SAR-Lupe-1 4.0 20:57:51 17° SSE 21:00:34 88° ENE 21:04:10 10° NNW
Cosmos 1818 3.9 20:55:21 10° SW 21:00:45 71° WNW 21:06:13 10° NNE
CZ-4B DEB 2.7 20:59:52 18° S 21:01:55 75° WSW 21:04:55 10° NNW
USA 186 4.0 20:59:21 10° SSW 21:02:03 24° W 21:04:44 10° NW
Cosmos 1943 Rocket 2.4 20:56:37 10° NNW 21:02:12 70° WSW 21:07:04 13° S
Okean 1-7 Rocket 4.5 21:02:46 23° SE 21:04:28 30° E 21:08:21 10° NNE
ERS-1 Rocket 3.3 21:01:30 20° SE 21:04:45 51° ENE 21:09:37 10° N
H-2A R/B 3.7 21:04:42 14° E 21:06:31 17° ENE 21:09:40 10° NNE
COSMOS 2406 3.2 21:02:08 10° S 21:07:49 69° ESE 21:13:29 10° NNE
USA 81 4.3 21:08:12 10° S 21:13:27 70° W 21:18:44 10° N
Cosmos 2112 Rocket 4.0 21:09:03 10° S 21:14:10 57° ESE 21:19:16 10° NNE
ARGOS 3.9 21:13:55 24° ESE 21:16:26 37° ENE 21:21:22 10° N
Cosmos 1743 2.6 21:14:33 10° N 21:18:27 86° E 21:20:24 28° S
CZ-3A R/B 1.4 21:14:08 10° SSW 21:19:42 39° SE 21:19:42 39° SE
USA 267 4.5 21:16:21 10° ENE 21:19:33 19° ESE 21:19:33 19° ESE
Okean 2 4.2 21:24:43 31° E 21:24:55 31° E 21:28:34 10° NNE
SL-27 R/B 2.6 21:24:25 42° SSE 21:25:19 56° ESE 21:28:55 10° NNE
NOSS 2-2 (D) 4.4 21:22:14 10° SW 21:26:04 48° NW 21:30:22 10° NNE
DNEPR-1 R/B 4.4 21:22:45 10° NNW 21:26:44 37° NE 21:28:12 29° E
ASTRO E2 3.1 21:24:58 10° WSW 21:28:45 42° S 21:29:07 41° SSE
USA 245 4.0 21:32:15 25° NE 21:32:15 25° NE 21:33:51 10° NNE
Cosmos 192 4.2 21:29:14 19° S 21:32:42 70° ESE 21:37:34 10° NNE
Cosmos 1437 Rocket 4.1 21:30:01 10° NNE 21:32:58 24° ENE 21:32:58 24° ENE
YAOGAN 11 4.2 21:32:24 41° SE 21:33:34 55° ENE 21:37:47 10° N
Cosmos 2184 Rocket 4.1 21:30:38 10° N 21:37:00 82° W 21:41:15 22° S
Cosmos 1680 Rocket 3.7 21:32:51 10° SSW 21:38:03 71° WNW 21:43:17 10° NNE
CENTAUR R/B 3.1 21:30:01 10° NNW 21:38:06 87° ENE 21:42:54 30° SSE
Aureole 1 Rocket 2.5 21:36:14 25° SSW 21:38:08 71° WNW 21:41:14 10° NNE
Cosmos 2074 Rocket 4.1 21:31:58 10° N 21:38:13 77° W 21:42:34 21° S
Cosmos 405 3.3 21:35:05 10° N 21:38:31 49° ENE 21:38:31 49° ENE
Cosmos 1606 Rocket 4.5 21:34:53 10° NNE 21:38:42 30° ENE 21:38:50 30° E
Meteor 2-13 Rocket 4.5 21:33:08 10° N 21:39:12 79° W 21:43:04 24° S
Intercosmos 24 3.9 21:37:09 10° N 21:40:59 50° E 21:41:05 49° E
Cosmos 1610 Rocket 4.4 21:35:28 10° N 21:41:45 76° E 21:44:48 32° SSE
MetOp-B 4.1 21:42:24 35° SSE 21:44:47 88° ENE 21:50:10 10° NNW
Cosmos 1726 Rocket 4.4 21:46:08 10° NNE 21:49:53 33° ENE 21:49:53 33° ENE
Cosmos 1666 3.2 21:47:38 10° NNW 21:51:18 52° W 21:52:10 41° SW
Meteor 2-9 Rocket 4.1 21:47:31 10° N 21:53:01 84° W 21:55:15 38° S
SPOT 5 2.4 21:53:00 60° SSE 21:53:45 82° ENE 21:58:05 10° N
Meteor 2-4 Rocket 4.1 21:49:08 13° SSW 21:54:03 61° W 21:59:46 10° N
Cosmos 2058 Rocket 4.3 21:50:20 10° NNE 21:53:45 27° ENE 21:53:45 27° ENE
Landsat 7 4.5 21:56:14 38° E 21:56:37 38° ENE 22:01:01 10° N
SPOT 1/Viking Rocket 3.6 21:56:00 49° SE 21:57:09 63° ENE 22:02:15 10° N
SL-08 RB Rocket 3.5 21:59:02 65° SE 21:59:37 78° ENE 22:04:06 10° N
Cosmos 1025 Rocket 3.3 21:59:36 41° SSW 22:00:55 65° W 22:05:09 10° N
Cosmos 962 Rocket 4.4 22:01:29 10° N 22:07:43 68° E 22:09:15 50° SE
Cosmos 1833 Rocket 4.0 22:10:08 25° ENE 22:10:08 25° ENE 22:13:18 10° NE
Terra 2.6 22:11:45 38° ENE 22:11:45 38° ENE 22:16:04 10° N
Tiangong 2 3.3 22:12:00 10° W 22:13:17 21° W 22:13:17 21° W
Cosmos 1515 4.3 22:18:34 52° N 22:18:34 52° N 22:21:31 10° N
ISS-0.422:25:07NE22:25:07NE22:16:17WSW
Cosmos 2154 Rocket 4.2 22:14:08 10° NNW 22:20:27 69° W 22:22:44 41° SSW
H-2A R/B 2.8 22:22:16 45° NE 22:22:16 45° NE 22:26:08 10° N
Cosmos 1371 Rocket 3.8 22:17:36 10° NNW 22:22:57 90° WSW 22:23:26 75° SSE
SL-8 Rocket 4.1 22:20:22 10° N 22:26:32 57° E 22:27:14 54° ESE
Cosmos 2366 rocket 4.4 22:24:09 10° N 22:30:00 43° E 22:30:17 43° E
Cosmos 1980 Rocket 4.1 22:35:07 10° NNE 22:38:40 17° NE 22:39:36 16° ENE
OAO 2 Rocket 3.9 22:39:51 10° W 22:43:24 47° W 22:43:24 47° W
H-2A R/B 2.5 22:45:20 47° WSW 22:45:30 47° W 22:50:18 10° NNW
Cosmos 2341 Rocket 4.4 22:40:56 10° NNW 22:47:08 58° W 22:48:37 47° SW
SL-08 R/B 4.4 22:48:42 10° N 22:54:48 71° E 22:54:49 71° E
CZ-4 R/B 4.2 22:52:32 10° NNE 22:56:52 66° N 22:56:52 66° N
Cosmos 1959 Rocket 4.3 22:51:28 10° N 22:57:51 86° E 22:58:11 81° SSE
USA 267 3.2 22:57:57 10° NE 23:04:31 86° NW 23:06:49 44° SW
Cosmos 2218 Rocket 3.8 22:58:48 10° N 23:04:58 83° W 23:05:06 82° WSW
Cosmos 2278 3.7 23:00:28 10° NNW 23:05:47 76° NW 23:05:47 76° NW
Cosmos 2082 Rocket 2.2 23:06:38 76° NNW 23:06:38 76° NNW 23:12:03 10° NNE
Cosmos 2228 4.4 23:04:35 10° NNW 23:07:32 35° NW 23:07:32 35° NW
SeaSat 1 4.1 23:09:31 24° NE 23:09:31 24° NE 23:13:15 10° N
Cosmos 2369 4.2 23:18:47 10° NNW 23:23:40 54° WNW 23:23:40 54° WNW
CZ-2C R/B 4.0 23:23:09 10° NNE 23:26:29 30° ENE 23:26:29 30° ENE
Nadezhda 3 Rocket 4.1 23:32:43 72° NE 23:32:43 72° NE 23:38:30 10° N
SL-16 R/B 4.2 23:31:38 10° NNE 23:35:17 17° NE 23:36:00 17° ENE
Cosmos 1697 Rocket 3.1 23:31:08 10° NNW 23:35:40 59° NNW 23:35:40 59° NNW
Terra 4.0 23:50:38 17° WNW 23:50:38 17° WNW 23:52:51 10° NW
Cosmos 1833 Rocket 3.9 23:51:47 33° WNW 23:52:19 34° WNW 23:57:26 10° N
